www.pogodaiklimat.ru

Погода и климат >> Архив погоды >> Греция >> Карпатос


ПОГОДА в Карпатосе

  • Прогноз погоды в Карпатосе
  • Монитор погоды в Карпатосе

АРХИВ ПОГОДЫ в Карпатосе

Время (UTC), дата Ветер
(напр.,м/с)
 
Видим.   Явления Облачность Т
(С)
Тd
(С)
f
(%)
Тe
(С)
Тes
(С)
Комфортность P
(гПа)
Po
(гПа)
Тmin
(С)
Tmax
(С)
R
(мм)
R24
(мм)
S
(см)
15 11.02 ЮЗ 5
{8}
10 км 4/4 600 м
[Sc diur, vesp]
+16.2 +8.5 60 +15 +15 1019.7 1019.0
18 11.02 ЮЗ 6
{10}
10 км 3/3 600 м
[Cu hum]
+15.2 +9.7 70 +14 +14 1019.7 1019.0 +1.7
21 11.02 Ю 7
{11}
н/о в посл. час осадки н/о +15.2 +7.8 61 +14 +14 1019.1 1017.1
00 12.02 ЮЗ 7
{11}
н/о в посл. час осадки н/о +15.2 +7.7 61 +13 +13 1018.0 1016.0 0.0
03 12.02 Ю 8
{12}
н/о осадки н/о +15.3 +9.6 69 +13 +13 1016.6 1014.6
06 12.02 ЮЗ 8
{13}
10 км 6/5 600 м
[Cu hum Ac lent]
+15.6 +7.1 57 +14 +14 1017.3 1016.6 +14.9
09 12.02 ЮЗ 8
{11}
10 км 8/5 750 м
[Cu Sc Ac lent]
+17.4 +8.6 56 +16 +17 1017.5 1016.8
12 12.02 ЮЗ 8
{11}
10 км 8/6 600 м
[Cu Sc Ac und Ci fib]
+16.8 +10.4 66 +15 +16 1015.8 1015.1
15 12.02 Ю 7
{11}
10 км 9/3 900 м
[Cu hum Ac und Ci fib]
+15.8 +9.1 64 +14 +14 1015.7 1015.0
18 12.02 Ю 6
{9}
10 км 5/5 900 м
[Cu hum Ci fib]
+14.8 +8.4 65 +13 +13 1016.7 1016.0 +18.1
21 12.02 Ю 5
{9}
н/о осадки н/о +14.8 +8.5 66 +13 +13 1016.5 1014.5
00 13.02 Ю 6
{9}
н/о осадки н/о +14.7 +8.4 66 +13 +13 1015.5 1013.5 0.0
03 13.02 Ю 8
{11}
н/о осадки н/о +14.7 +8.6 67 +13 +13 1013.9 1011.9
06 13.02 Ю 6
{11}
10 км 8/3 900 м
[Cu hum Ci fib]
+15.2 +7.5 60 +14 +14 1013.7 1013.0 +14.5
09 13.02 ЮЗ 5
{10}
10 км 10/5 600 м
[Cu Sc Ac lent Cs]
+15.8 +9.7 67 +15 +16 1013.6 1012.9
12 13.02 Ю 6
{11}
10 км {дождь} 10/4 900 м
[Cu med, cong Ac und Cs]
+15.2 +7.9 62 +14 +15 1012.1 1011.4 0.8
15 13.02 СЗ 1
{11}
10 км 10/4 600 м
[Cu Sc Ac und Cs]
+13.8 +7.5 66 +14 +14 1011.5 1010.8
18 13.02 ЮВ 6
{13}
10 км слаб. дождь {гроза} 10/6 600 м
[Cu Sc Ac As Cs]
+11.8 +8.4 80 +9 +9 1012.4 1011.7 +17.0 7
21 13.02 Ю 6
{12}
н/о осадки н/о +12.4 +8.4 77 +10 +10 1012.0 1010.0
00 14.02 СВ 5
{8}
н/о {осадки} н/о +12.6 +7.9 73 +10 +10 1010.3 1008.3 2
03 14.02 СВ 6
{9}
н/о осадки н/о +12.8 +9.4 80 +10 +10 1009.5 1007.5
06 14.02 СВ 8
{12}
10 км морось {дождь} 10/5 600 м
[Cu Sc Ac As Cs]
+11.8 +8.5 80 +9 +9 1010.2 1009.5 +10.2 3
09 14.02 СВ 3
{9}
10 км в посл. час морось 10/4 750 м
[Sc Ac As Cs]
+13.8 +8.1 68 +13 +15 1009.4 1008.7
12 14.02 В 1
{9}
10 км слаб. дождь {морось} 9/6 540 м
[Cu Sc Ac As Cs]
+11.8 +8.6 81 +13 +15 1008.8 1008.1 6
15 14.02 С 3
{11}
7000 м слаб. дождь {гроза} 10/6 400 м
[St Ac As]
+12.4 +10.1 86 +11 +11 1008.9 1008.2
18 14.02 СЗ 3
{8}
10 км гроза, ливневой дождь 9/4 540 м
[Cb cap Ac As Cs]
+11.8 +9.2 84 +10 +10 1019.9 1019.2 +14.0 16
21 14.02 СЗ 10
{13}
н/о {осадки} н/о +12.3 +8.9 80 +9 +9 1009.0 1007.0
00 15.02 СЗ 12
{17}
н/о осадки н/о +11.6 +7.2 74 +8 +8 1009.3 1007.3 0.2
03 15.02 СЗ 12
{17}
н/о осадки н/о +11.0 +6.4 73 +7 +7 1010.0 1008.0
06 15.02 СЗ 11
{19}
10 км 5/5 600 м
[Sc Ac lent]
+10.8 +5.0 67 +7 +7 1011.1 1010.4 +10.6 0.3
09 15.02 СЗ 9
{15}
10 км 5/5 600 м
[Cu hum]
+12.6 +5.8 63 +9 +10 1012.4 1011.7
12 15.02 СЗ 11
{15}
10 км 5/5 600 м
[Cu med, cong Ac lent]
+13.4 +5.8 60 +10 +10 1012.1 1011.4
15 15.02 СЗ 10
{16}
10 км 4/3 600 м
[Cu med, cong Ac lent]
+11.2 +3.7 60 +8 +8 1012.7 1012.0
18 15.02 СЗ 7
{13}
10 км {дождь} 5/5 600 м
[Sc Ac lent]
+11.0 +4.2 63 +8 +8 1014.3 1013.6 +13.7 0.2
21 15.02 СЗ 4
{11}
10 км 4/4 600 м
[Cu med, cong]
+10.0 +4.2 67 +7 +7 1014.9 1014.2
00 16.02 З 5
{13}
н/о {осадки} н/о +10.1 +4.9 70 +7 +7 1015.2 1013.1 0.0
03 16.02 З 6
{10}
н/о в посл. час осадки н/о +11.2 +5.0 66 +8 +8 1014.9 1012.9
06 16.02 СЗ 4
{9}
10 км слаб. морось 5/4 600 м
[Cu med, cong Ac lent]
+11.0 +6.2 72 +9 +9 1016.3 1015.6 +8.6 0.0
09 16.02 З 3
{7}
10 км 4/3 600 м
[Cu med, cong Ac lent]
+14.0 +6.6 61 +13 +18 1017.3 1016.6
12 16.02 СЗ 3
{8}
10 км гроза без осадков 8/6 540 м
[Cb cap Ac und]
+13.0 +7.3 68 +12 +14 1017.5 1016.8 0.0
15 16.02 нст 2
{7}
10 км 5/4 750 м
[Cu Sc Ac und]
+13.6 +6.4 62 +13 +14 1018.0 1017.3
18 16.02 нст 2
{5}
10 км зарница {гроза} 4/3 900 м
[Cu med, cong Ac und Ci fib]
+11.4 +6.3 71 +11 +11 1019.2 1018.5 +14.3 0.0
21 16.02 СЗ 1
{2}
н/о н/о +11.4 +6.3 71 +12 +12 1019.9 1017.9
00 17.02 штиль 0
{3}
н/о н/о +11.0 +6.0 71 +11 +11 1020.0 1018.0
03 17.02 СЗ 2
{2}
н/о н/о +10.5 +5.7 72 +10 +10 1019.3 1017.3
06 17.02 штиль 0
{3}
10 км 4/3 600 м
[Cu med, cong Ac lent]
+10.6 +5.6 71 +10 +11 1020.4 1019.7 +9.9
09 17.02 В 3
{6}
10 км 4/3 900 м
[Cu med, cong Ac lent Ci fib]
+15.8 +6.0 52 +15 +20 1021.2 1020.5
12 17.02 В 3
{6}
10 км 4/4 1000 м
[Cu med, cong Ac lent Cc]
+16.4 +5.2 47 +16 +21 1020.4 1019.7
15 17.02 СЗ 2
{5}
10 км 3/3 300 м
[Cu med, cong Ac lent]
+13.0 +7.7 70 +12 +13 1020.2 1019.5
18 17.02 С 4
{6}
10 км слаб. морось 5/5 600 м
[Cu Sc]
+12.4 +7.9 74 +11 +11 1020.8 1020.1 +16.6 0.0
21 17.02 СЗ 4
{6}
н/о н/о +11.8 +7.2 73 +10 +10 1021.4 1019.4
00 18.02 СЗ 5
{11}
н/о н/о +12.2 +7.2 71 +10 +10 1021.3 1019.3
03 18.02 СЗ 6
{11}
н/о в посл. час осадки н/о +12.0 +6.7 70 +9 +9 1020.8 1018.7
06 18.02 СЗ 6
{12}
10 км 1/1 600 м
[Cu hum]
+12.8 +7.4 70 +10 +11 1021.5 1020.8 +10.0
09 18.02 СЗ 8
{12}
10 км 3/3 600 м
[Cu hum]
+15.8 +7.7 59 +14 +16 1021.9 1021.2

 

Местоположение метеостанции Карпатос (Греция): широта 35.52 долгота 27.25 высота над уровнем моря 6 м.

В архиве по умолчанию представлена погода в Карпатосе за последнюю неделю. Архивные данные за месяц целиком и за предыдущие месяцы, начиная с января 2011 года, Вы можете получить, выбрав интересующий диапазон дат из раскрывающегося списка и нажав кнопку "Ввод!".


*Определитесь, кто Вы:
робот инопланетянин человек

Внимание! Время в таблицах - всемирное. Для получения местного времени необходимо прибавить поправку, которая равна 2 ч.

Смотрите также архив погоды в соседних городах и на ближайших метеорологических станциях:

Погода в Ситии (Греция) (110 км)
Погода на Родосе (Греция) (123 км)
Погода в Датче (Турция) (137 км)
Погода на Косе (Греция) (141 км)
Погода в Бодруме (Турция) (169 км)
Погода в Мармарисе (Турция) (174 км)
Погода в Кастели (Греция) (179 км)
Погода в Ираклион (Греция) (189 км)
Погода в Даламане (Турция) (190 км)
Погода в Аэропорту Милас-Бодрум (Турция) (194 км)

Пояснения к столбцам:

Ветер - указаны скорость ветра в м/с - средняя за 10 мин, порывы в срок и между сроками (в фигурных скобках) и направление, откуда дует ветер: С - северный, СВ - северо-восточный, В - восточный, ЮВ - юго-восточный, Ю - южный, ЮЗ - юго-западный, З - западный, СЗ - северо-западный.
Видимость - горизонтальная дальность видимости в метрах или километрах. При видимости от 1 до 10 км при отсутствии осадков обычно наблюдается дымка, при ухудшении видимости до 1 км и менее - туман. В сухую погоду видимость может ухудшаться дымом, пылью или мглою.
Явления - указаны атмосферные явления, наблюдавшиеся в срок или в последний час перед сроком; фигурными скобками обозначены явления, наблюдавшиеся между сроками (за 1-3 часа до срока); квадратными скобками обозначены град или гололедные отложения с указанием их диаметра в мм.
Облачность - указаны через наклонную черту общая и нижняя облачность в баллах и высота нижней границы облаков в метрах; квадратными скобками обозначены формы облаков: Ci - перистые, Cs - перисто-слоистые, Cc - перисто-кучевые, Ac - высококучевые, As - высокослоистые, Sc - слоисто-кучевые, Ns - слоисто-дождевые, Cu - кучевые, Cb - кучево-дождевые. Подробнее классификацию облаков см. в Атласе облаков (PDF).
T - Температура воздуха - температура, измеренная на высоте 2 м над землей.
Td - Температура точки росы - температура, при понижении до которой содержащийся в воздухе водяной пар достигнет насыщения.
f - Относительная влажность воздуха - влажноcть воздуха, измеренная на высоте 2 м над землей.
Te - Эффективная температура - температура, которую ощущает одетый по сезону человек в тени. Характеристика душности погоды. При расчете учитывается влияние влажности воздуха и скорости ветра на теплоощущения человека.
Tes - Эффективная температура на солнце - температура, которую ощущает человек, с поправкой на солнечный нагрев. Характеристика знойности погоды. Зависит от высоты солнца над горизонтом, облачности и скорости ветра. Ночью, в пасмурную погоду, а также при ветре 12 м/с и более поправка равна нулю.
P - Атмосферное давление - приведенное к уровню моря атмосферное давление.
Po - Атмосферное давление - измеренное на уровне метеостанции атмосферное давление.
Tmin - Минимальная температура - минимум температуры воздуха на высоте 2 м над землей.
Tmax - Максимальная температура - максимум температуры воздуха на высоте 2 м над землей.
R - Количество осадков - Количество выпавших осадков за период времени, мм. При наведении курсора мыши на число - период времени, за который выпало указанное количество осадков.
R24 - Количество осадков - Количество выпавших осадков за 24 часа, мм.
S - Снежный покров - Высота снежного покрова, см. При наведении курсора мыши на число - состояние снежного покрова и степень покрытия местности в баллах.